Location: Newark
(49.1022°N, 20.8503°E)
Time: 07:52:03
(UTC+00:00)

Envisat - Pass Details

Date: 27 September 2020
Orbit: 764 x 766 km, 98.1° (Epoch: 21 October)

Event Time Altitude Azimuth Distance (km) Brightness Sun altitude
Rises 03:52:44 0° 22° (NNE) 3,244 6.6 -7.0°
Reaches altitude 10° 03:55:22 10° 34° (NE) 2,312 6.1 -6.6°
Maximum altitude 03:59:45 29° 94° (E) 1,393 5.4 -5.9°
Drops below altitude 10° 04:04:06 10° 153° (SSE) 2,296 5.8 -5.2°
Sets 04:06:41 0° 165° (SSE) 3,217 6.4 -4.8°
